Flag for Norway Weather past 2 weeks in Førde, Norway

Now
59 °F

Broken clouds.


Feels Like: 60 °F
Forecast: 44 / 70 °F
Wind: 3 mph from North

Location: Forde / Bringeland

Current Time: Aug 31, 2015 at 1:08:28 PM

Latest Report: Aug 31, 2015 at 11:50 AM


Visibility: N/A

Pressure: 30.04 "Hg

Humidity: 72%

Dew point: 50 °F

Location of FørdeLocation

Historic Weather in Førde — Graph

°F

Førde temperature yesterday

Maximum temperature yesterday: 59 °F (at 12:50 PM)
Minimum temperature yesterday: 50 °F (at 10:20 PM)
Average temperature yesterday: 54 °F

Past Weeks' High & Low Weather Summary

 TemperatureHumidityPressure
High75 °F (Aug 19, 2:50 PM)100% (Aug 28, 3:50 PM)30.24 "Hg (Aug 28, 3:50 PM)
Low50 °F (Aug 27, 9:50 PM)24% (Aug 19, 4:20 PM)29.47 "Hg (Aug 26, 5:50 AM)
Average62 °F62%29.94 "Hg
* Reported Aug 16 11:50 AM — Aug 31 11:50 AM, Førde, Weather by CustomWeather, © 2015

Note: Actual official high and low records may vary slightly from our data, if they occured in-between our weather recording intervals... More about our weather records

Advertising

Førde weather history for previous 24 hours

 ConditionsComfort  
Time TempWeatherWind HumidityBarometerVisibility
11:50 AM
Mon, Aug 31
59 °FBroken clouds.3 mph72%30.04 "HgN/A
11:20 AM57 °FBroken clouds.2 mph77%30.04 "HgN/A
10:50 AM55 °FBroken clouds.1 mph82%30.04 "HgN/A
10:20 AM55 °FCool.2 mph88%30.04 "HgN/A
9:50 AM52 °FCool.1 mph94%30.04 "HgN/A
9:20 AM52 °FCool.1 mph94%30.04 "HgN/A
8:50 AM52 °FCool.1 mph94%30.04 "HgN/A
8:20 AM50 °FCool.2 mph100%30.04 "HgN/A
7:50 AM50 °FSprinkles. Cloudy.3 mph94%30.04 "HgN/A
6:50 AM50 °FScattered showers. Overcast.2 mph94%30.04 "HgN/A
6:20 AM50 °FSprinkles. Overcast.1 mph94%30.04 "HgN/A
10:20 PM
Sun, Aug 30
50 °FRain showers. Overcast.2 mph100%30.04 "HgN/A
9:20 PM52 °FScattered showers. Cloudy.2 mph94%30.04 "HgN/A
8:50 PM52 °FScattered showers. Cloudy.2 mph94%30.04 "HgN/A
8:20 PM52 °FSprinkles. Cloudy.2 mph94%30.04 "HgN/A
7:50 PM54 °FSprinkles. Cloudy.N/A88%30.04 "HgN/A
6:50 PM54 °FScattered showers. Cloudy.2 mph94%30.04 "HgN/A
6:20 PM54 °FScattered showers. Cloudy.3 mph88%30.04 "HgN/A
5:50 PM54 °FSprinkles. Cloudy.2 mph88%30.04 "HgN/A
5:20 PM54 °FSprinkles. Cloudy.5 mph88%30.04 "HgN/A
4:50 PM52 °FRain showers. Cloudy.5 mph94%30.04 "HgN/A
4:20 PM52 °FRain showers. Cloudy.3 mph94%30.04 "Hg4 mi
3:50 PM52 °FSprinkles. Broken clouds.5 mph94%30.04 "Hg4 mi
3:20 PM54 °FSleet. Broken clouds.1 mph88%30.04 "HgN/A
2:50 PM54 °FSprinkles. Broken clouds.5 mph88%30.04 "HgN/A
2:20 PM54 °FSprinkles. Broken clouds.9 mph88%30.04 "HgN/A
1:50 PM54 °FSprinkles. Broken clouds.8 mph88%30.04 "HgN/A
1:20 PM55 °FSprinkles. Broken clouds.9 mph82%30.01 "HgN/A
Weather by CustomWeather, © 2015

See weather overviewHow to use our weather pages